Regional Weather Roundup
Issued by NWS

Home | Current Version | Previous Version | Text Only | Print | Product List | Glossary On
Versions: 1 2 3 4 5 6 7 8 9 10 11 12 13 14 15 16 17 18 19 20 21 22 23 24 25 26 27 28 29 30 31 32 33 34 35 36 37 38 39 40 41 42 43 44 45 46 47 48 49 50
000
ASUS43 KLSX 221407
RWRMO

WEATHER SUMMARY FOR MISSOURI
NATIONAL WEATHER SERVICE SPRINGFIELD MO
900 AM CDT FRI AUG 22 2014

NOTE: "FAIR" INDICATES FEW OR NO CLOUDS BELOW 12,000 FEET WITH NO
       SIGNIFICANT WEATHER AND/OR OBSTRUCTIONS TO VISIBILITY.
       CURRENT SKY AND/OR WEATHER CONDITIONS ARE NOT AVAILABLE FOR
       CHILLICOTHE AND FARMINGTON.

MOZ001>031-035>038-043-044-053-054-221500-
...NORTHERN AND WESTERN MISSOURI...

CITY           SKY/WX    TMP DP  RH WIND       PRES   REMARKS
KANSAS CTY INT CLOUDY    81  72  74 S3        29.97R
KANSAS C DTWN  MOSUNNY   83  71  67 CALM      29.95R
LEE`S SUMMIT   PTSUNNY   79  70  74 SW8       29.97R
ST JOSEPH      LGT RAIN  77  74  90 S6        29.96R
CHILLICOTHE      N/A     79  73  82 S6        29.97R
KIRKSVILLE     CLOUDY    76  74  93 SW6       29.93F

$$
MOZ066>068-077>081-088>096-101>105-221500-
...SOUTHWEST MISSOURI...

CITY           SKY/WX    TMP DP  RH WIND       PRES   REMARKS
SPRINGFIELD    SUNNY     82  70  66 SW12      30.02R
JOPLIN         SUNNY     83  70  64 SW17G23   30.00S

$$
MOZ032>034-039>042-045>050-055>058-069>072-221500-
...CENTRAL MISSOURI...

CITY           SKY/WX    TMP DP  RH WIND       PRES   REMARKS
COLUMBIA       PTSUNNY   78  73  84 N7        30.02R
JEFFERSON CITY PTSUNNY   79  72  79 VRB5      29.99R
ROLLA          MOSUNNY   80  71  74 SW13      30.02R
SEDALIA        MOSUNNY   83  71  67 SW13G23   29.98R
WHITEMAN AFB   MOSUNNY   80  50  34 SW13      29.96R
OSAGE BEACH    MOSUNNY   81  70  69 SW8       30.00S

$$
MOZ051-052-059>065-221500-
...EAST CENTRAL MISSOURI...

CITY           SKY/WX    TMP DP  RH WIND       PRES   REMARKS
ST LOUIS INTL  PTSUNNY   85  72  65 W10       30.01R HX  91
SPIRIT OF STL  PTSUNNY   82  72  71 SW8       29.99R
ST CHARLES     MOSUNNY   81  72  74 W3        30.00R

$$
MOZ072>076-082>087-097>100-106>115-221500-
...SOUTH CENTRAL AND SOUTHEAST MISSOURI...

CITY           SKY/WX    TMP DP  RH WIND       PRES   REMARKS
CAPE GIRARDEAU SUNNY     81  74  79 SW6       30.04R
FARMINGTON     SUNNY     81  72  74 SW8       30.07R
POPLAR BLUFF   SUNNY     81  73  76 SW6       30.03F
WEST PLAINS    SUNNY     80  72  76 SW6       30.08R

$$


USA.gov is the U.S. government's official web portal to all federal, state and local government web resources and services.